• In Latvia
  • List of Countries
  • For 7 days
  • Water Temperature
  • Satellite Maps
  • Weather Map
  • Weather Widgets
  • user-avatar
    Login

    Hourly Weather Aizpute

    Today, 20 October, Friday

    Time Temperature Precipitation Wind Pressure Humidity
    00:00 +4°C° 0 mm 2 mps 760 mmHg 91%
    01:00 +4°C° 0 mm 2 mps 760 mmHg 91%
    02:00 +4°C° 0 mm 2 mps 760 mmHg 91%
    03:00 +4°C° 0 mm 2 mps 760 mmHg 92%
    04:00 +4°C° 0 mm 2 mps 760 mmHg 92%
    05:00 +4°C° 0 mm 2 mps 760 mmHg 92%
    06:00 +4°C° 0 mm 2 mps 760 mmHg 92%
    07:00 +3°C° 0 mm 3 mps 760 mmHg 91%
    08:00 +4°C° 0 mm 3 mps 760 mmHg 85%
    09:00 +7°C° 0 mm 3 mps 760 mmHg 79%
    10:00 +8°C° 0 mm 3 mps 760 mmHg 73%
    11:00 +9°C° 0 mm 3 mps 760 mmHg 70%
    12:00 +9°C° 0 mm 3 mps 760 mmHg 67%
    13:00 +10°C° 0 mm 3 mps 760 mmHg 63%
    14:00 +9°C° 0 mm 3 mps 759 mmHg 68%
    15:00 +8°C° 0 mm 3 mps 759 mmHg 73%
    16:00 +8°C° 0 mm 3 mps 759 mmHg 78%
    17:00 +7°C° 0 mm 3 mps 759 mmHg 79%
    18:00 +7°C° 0 mm 3 mps 759 mmHg 81%
    19:00 +5°C° 0 mm 4 mps 759 mmHg 82%
    20:00 +5°C° 0 mm 4 mps 759 mmHg 82%
    21:00 +5°C° 0 mm 4 mps 759 mmHg 82%
    22:00 +5°C° 0 mm 4 mps 759 mmHg 82%
    23:00 +5°C° 0 mm 4 mps 759 mmHg 82%

    Tomorrow, 21 October, Saturday

    Time Temperature Precipitation Wind Pressure Humidity
    00:00 +5°C° 0 mm 4 mps 759 mmHg 82%
    01:00 +5°C° 0 mm 4 mps 759 mmHg 82%
    02:00 +5°C° 0.1 mm 5 mps 758 mmHg 83%
    03:00 +5°C° 0.1 mm 5 mps 758 mmHg 84%
    04:00 +5°C° 0.1 mm 5 mps 758 mmHg 85%
    05:00 +5°C° 0.1 mm 5 mps 758 mmHg 85%
    06:00 +5°C° 0.1 mm 5 mps 758 mmHg 85%
    07:00 +5°C° 0.1 mm 5 mps 758 mmHg 85%
    08:00 +5°C° 0.1 mm 5 mps 758 mmHg 83%
    09:00 +5°C° 0.1 mm 5 mps 759 mmHg 81%
    10:00 +6°C° 0.1 mm 5 mps 759 mmHg 78%
    11:00 +6°C° 0 mm 5 mps 759 mmHg 75%
    12:00 +7°C° 0 mm 5 mps 759 mmHg 72%
    13:00 +8°C° 0 mm 5 mps 759 mmHg 70%
    14:00 +7°C° 0 mm 5 mps 759 mmHg 73%
    15:00 +6°C° 0 mm 4 mps 759 mmHg 76%
    16:00 +5°C° 0 mm 4 mps 759 mmHg 79%
    17:00 +5°C° 0 mm 4 mps 759 mmHg 81%
    18:00 +4°C° 0 mm 4 mps 759 mmHg 82%
    19:00 +2°C° 0 mm 5 mps 759 mmHg 84%
    20:00 +3°C° 0 mm 4 mps 759 mmHg 84%
    21:00 +3°C° 0 mm 4 mps 759 mmHg 85%
    22:00 +1°C° 0 mm 4 mps 759 mmHg 86%
    23:00 +1°C° 0 mm 4 mps 759 mmHg 87%

    Day after tomorrow, 22 October, Sunday

    Time Temperature Precipitation Wind Pressure Humidity
    00:00 0°C° 0 mm 4 mps 759 mmHg 89%
    01:00 0°C° 0 mm 4 mps 759 mmHg 90%
    02:00 0°C° 0 mm 4 mps 759 mmHg 91%
    03:00 0°C° 0 mm 4 mps 759 mmHg 91%
    04:00 -1°C° 0 mm 4 mps 759 mmHg 92%
    05:00 -1°C° 0 mm 4 mps 759 mmHg 92%
    06:00 -1°C° 0 mm 4 mps 758 mmHg 91%
    07:00 -1°C° 0 mm 5 mps 758 mmHg 91%
    08:00 +1°C° 0 mm 5 mps 758 mmHg 86%
    09:00 +2°C° 0 mm 5 mps 758 mmHg 81%
    10:00 +3°C° 0 mm 5 mps 758 mmHg 76%
    11:00 +5°C° 0 mm 5 mps 758 mmHg 74%
    12:00 +6°C° 0 mm 5 mps 757 mmHg 72%
    13:00 +6°C° 0 mm 5 mps 757 mmHg 71%
    14:00 +6°C° 0 mm 4 mps 757 mmHg 74%
    15:00 +5°C° 0 mm 4 mps 756 mmHg 77%
    16:00 +5°C° 0 mm 4 mps 756 mmHg 81%
    17:00 +4°C° 0.1 mm 4 mps 756 mmHg 82%
    18:00 +4°C° 0.1 mm 4 mps 756 mmHg 83%
    19:00 +4°C° 0.1 mm 4 mps 756 mmHg 84%
    20:00 +4°C° 0.2 mm 4 mps 756 mmHg 86%
    21:00 +4°C° 0.2 mm 4 mps 756 mmHg 87%
    22:00 +4°C° 0.2 mm 4 mps 756 mmHg 88%
    23:00 +4°C° 0.3 mm 4 mps 756 mmHg 88%

    23 October, Monday

    Time Temperature Precipitation Wind Pressure Humidity
    00:00 +4°C° 0.3 mm 4 mps 755 mmHg 89%
    01:00 +3°C° 0.3 mm 4 mps 755 mmHg 90%
    02:00 +3°C° 0.5 mm 4 mps 755 mmHg 90%
    03:00 +3°C° 0.5 mm 4 mps 755 mmHg 90%
    04:00 +2°C° 0.5 mm 5 mps 755 mmHg 90%
    05:00 +2°C° 0.5 mm 5 mps 755 mmHg 90%
    06:00 +2°C° 0.5 mm 5 mps 755 mmHg 89%
    07:00 +2°C° 0.5 mm 5 mps 755 mmHg 88%
    08:00 +2°C° 0.3 mm 6 mps 755 mmHg 87%
    09:00 +2°C° 0.3 mm 6 mps 755 mmHg 86%
    10:00 +2°C° 0.3 mm 6 mps 756 mmHg 84%
    11:00 +2°C° 0.2 mm 6 mps 756 mmHg 83%
    12:00 +3°C° 0.2 mm 6 mps 756 mmHg 82%
    13:00 +3°C° 0.2 mm 6 mps 756 mmHg 80%
    14:00 +3°C° 0.2 mm 6 mps 757 mmHg 80%
    15:00 +2°C° 0.2 mm 6 mps 757 mmHg 79%
    16:00 +2°C° 0.2 mm 6 mps 757 mmHg 79%
    17:00 +2°C° 0.2 mm 6 mps 758 mmHg 78%
    18:00 +2°C° 0.2 mm 6 mps 758 mmHg 78%
    19:00 +2°C° 0.2 mm 6 mps 759 mmHg 78%
    20:00 +1°C° 0.2 mm 6 mps 759 mmHg 79%
    21:00 +1°C° 0.2 mm 6 mps 760 mmHg 80%
    22:00 +1°C° 0.2 mm 6 mps 760 mmHg 80%
    23:00 +1°C° 0.3 mm 6 mps 761 mmHg 81%

    24 October, Tuesday

    Time Temperature Precipitation Wind Pressure Humidity
    00:00 +1°C° 0.3 mm 6 mps 761 mmHg 82%
    01:00 -1°C° 0.3 mm 6 mps 761 mmHg 83%
    02:00 -1°C° 0.3 mm 6 mps 762 mmHg 84%
    03:00 -1°C° 0.3 mm 6 mps 762 mmHg 85%
    04:00 0°C° 0.3 mm 5 mps 762 mmHg 86%
    05:00 0°C° 0.3 mm 5 mps 763 mmHg 86%
    06:00 -1°C° 0.3 mm 5 mps 763 mmHg 87%
    07:00 -1°C° 0.3 mm 5 mps 764 mmHg 87%
    08:00 0°C° 0.1 mm 5 mps 764 mmHg 86%
    09:00 0°C° 0.1 mm 5 mps 765 mmHg 84%
    10:00 0°C° 0.1 mm 5 mps 765 mmHg 83%
    11:00 +1°C° 0.2 mm 5 mps 765 mmHg 82%
    12:00 +1°C° 0.2 mm 5 mps 765 mmHg 82%
    13:00 +1°C° 0.2 mm 5 mps 766 mmHg 81%
    14:00 +1°C° 0.1 mm 4 mps 766 mmHg 82%
    15:00 +1°C° 0.1 mm 4 mps 766 mmHg 82%
    16:00 +1°C° 0.1 mm 4 mps 766 mmHg 83%
    17:00 +1°C° 0.1 mm 4 mps 766 mmHg 82%
    18:00 +1°C° 0.1 mm 4 mps 766 mmHg 82%
    19:00 +1°C° 0.1 mm 5 mps 767 mmHg 82%
    20:00 +1°C° 0 mm 5 mps 767 mmHg 82%
    21:00 +1°C° 0 mm 5 mps 767 mmHg 82%
    22:00 +1°C° 0 mm 5 mps 767 mmHg 82%
    23:00 +1°C° 0 mm 5 mps 767 mmHg 83%

    25 October, Wednesday

    Time Temperature Precipitation Wind Pressure Humidity
    00:00 +1°C° 0 mm 5 mps 767 mmHg 84%
    01:00 +1°C° 0 mm 5 mps 767 mmHg 85%
    02:00 0°C° 0 mm 5 mps 767 mmHg 85%
    03:00 0°C° 0 mm 5 mps 766 mmHg 86%
    04:00 0°C° 0 mm 5 mps 766 mmHg 87%
    05:00 0°C° 0 mm 5 mps 766 mmHg 87%
    06:00 0°C° 0 mm 5 mps 766 mmHg 87%
    07:00 0°C° 0 mm 5 mps 766 mmHg 87%
    08:00 +1°C° 0 mm 6 mps 766 mmHg 84%
    09:00 +2°C° 0 mm 6 mps 766 mmHg 81%
    10:00 +3°C° 0 mm 6 mps 766 mmHg 78%
    11:00 +3°C° 0 mm 6 mps 765 mmHg 78%
    12:00 +4°C° 0 mm 7 mps 765 mmHg 77%
    13:00 +4°C° 0 mm 7 mps 765 mmHg 76%
    14:00 +4°C° 0.3 mm 7 mps 764 mmHg 77%
    15:00 +4°C° 0.3 mm 7 mps 764 mmHg 79%
    16:00 +4°C° 0.3 mm 7 mps 764 mmHg 80%
    17:00 +4°C° 0.4 mm 8 mps 763 mmHg 81%
    18:00 +4°C° 0.4 mm 8 mps 763 mmHg 81%
    19:00 +4°C° 0.4 mm 8 mps 763 mmHg 82%
    20:00 +5°C° 0.5 mm 8 mps 763 mmHg 83%
    21:00 +5°C° 0.5 mm 8 mps 762 mmHg 83%
    22:00 +5°C° 0.5 mm 8 mps 762 mmHg 84%
    23:00 +6°C° 0.5 mm 8 mps 762 mmHg 86%
    Show more